When you browse on this site, cookies collect data to enhance your experience and personalize the content and advertising you see.
Visit our Privacy Policy to learn more. By continuing to use the site, you agree to this use of cookies and data.
  • In Austria
  • List of Countries
  • For 7 days
  • Water Temperature
  • Weather Map
  • News
  • Weather Widgets
  • user-avatar
    Login

    Hourly Weather Tasquillo

    Today, 25 August, Sunday

    Time Temperature Precipitation Wind Pressure Humidity
    00:00 +21°C° 0.4 mm 1 mps 627 mmHg 85%
    01:00 +21°C° 0.4 mm 1 mps 626 mmHg 84%
    02:00 +21°C° 0.4 mm 1 mps 626 mmHg 84%
    03:00 +21°C° 0 mm 1 mps 626 mmHg 85%
    04:00 +18°C° 0 mm 0 mps 626 mmHg 86%
    05:00 +18°C° 0 mm 0 mps 626 mmHg 87%
    06:00 +19°C° 0 mm 0 mps 626 mmHg 81%
    07:00 +21°C° 0 mm 0 mps 627 mmHg 74%
    08:00 +24°C° 0 mm 1 mps 628 mmHg 67%
    09:00 +26°C° 0 mm 1 mps 628 mmHg 62%
    10:00 +27°C° 0 mm 1 mps 628 mmHg 56%
    11:00 +29°C° 0 mm 1 mps 628 mmHg 50%
    12:00 +29°C° 0.7 mm 1 mps 627 mmHg 50%
    13:00 +29°C° 0.7 mm 2 mps 627 mmHg 50%
    14:00 +29°C° 0.7 mm 2 mps 626 mmHg 49%
    15:00 +28°C° 0.7 mm 2 mps 626 mmHg 55%
    16:00 +27°C° 0.7 mm 2 mps 626 mmHg 61%
    17:00 +26°C° 0.7 mm 2 mps 625 mmHg 66%
    18:00 +25°C° 0.5 mm 2 mps 625 mmHg 71%
    19:00 +24°C° 0.5 mm 1 mps 626 mmHg 77%
    20:00 +23°C° 0.5 mm 1 mps 626 mmHg 82%
    21:00 +22°C° 0.5 mm 1 mps 626 mmHg 83%
    22:00 +22°C° 0.5 mm 1 mps 626 mmHg 83%
    23:00 +22°C° 0.5 mm 1 mps 626 mmHg 84%

    Tomorrow, 26 August, Monday

    Time Temperature Precipitation Wind Pressure Humidity
    00:00 +21°C° 0.6 mm 1 mps 625 mmHg 85%
    01:00 +21°C° 0.6 mm 1 mps 625 mmHg 85%
    02:00 +19°C° 0.6 mm 0 mps 624 mmHg 86%
    03:00 +20°C° 0.1 mm 1 mps 624 mmHg 86%
    04:00 +20°C° 0.1 mm 1 mps 624 mmHg 86%
    05:00 +20°C° 0.1 mm 1 mps 624 mmHg 86%
    06:00 +21°C° 0.1 mm 1 mps 625 mmHg 80%
    07:00 +22°C° 0.1 mm 1 mps 625 mmHg 75%
    08:00 +24°C° 0.1 mm 1 mps 626 mmHg 69%
    09:00 +25°C° 1.3 mm 1 mps 626 mmHg 66%
    10:00 +26°C° 1.3 mm 1 mps 626 mmHg 62%
    11:00 +25°C° 1.3 mm 0 mps 626 mmHg 58%
    12:00 +28°C° 0.8 mm 1 mps 626 mmHg 56%
    13:00 +28°C° 0.8 mm 2 mps 626 mmHg 53%
    14:00 +28°C° 0.8 mm 2 mps 625 mmHg 50%
    15:00 +28°C° 0.6 mm 3 mps 625 mmHg 55%
    16:00 +27°C° 0.6 mm 3 mps 624 mmHg 60%
    17:00 +26°C° 0.6 mm 3 mps 624 mmHg 65%
    18:00 +25°C° 0.4 mm 2 mps 624 mmHg 71%
    19:00 +23°C° 0.4 mm 1 mps 625 mmHg 76%
    20:00 +22°C° 0.4 mm 1 mps 625 mmHg 82%
    21:00 +22°C° 0.3 mm 1 mps 625 mmHg 82%
    22:00 +21°C° 0.3 mm 1 mps 625 mmHg 83%
    23:00 +21°C° 0.3 mm 1 mps 625 mmHg 84%

    Day after tomorrow, 27 August, Tuesday

    Time Temperature Precipitation Wind Pressure Humidity
    00:00 +21°C° 0.3 mm 1 mps 625 mmHg 85%
    01:00 +20°C° 0.3 mm 1 mps 625 mmHg 86%
    02:00 +19°C° 0.3 mm 1 mps 624 mmHg 88%
    03:00 +19°C° 0 mm 1 mps 624 mmHg 88%
    04:00 +19°C° 0 mm 1 mps 624 mmHg 89%
    05:00 +18°C° 0 mm 1 mps 624 mmHg 90%
    06:00 +18°C° 0 mm 0 mps 625 mmHg 84%
    07:00 +19°C° 0 mm 0 mps 626 mmHg 79%
    08:00 +20°C° 0 mm 0 mps 626 mmHg 73%
    09:00 +24°C° 0 mm 1 mps 626 mmHg 66%
    10:00 +25°C° 0 mm 1 mps 627 mmHg 59%
    11:00 +27°C° 0 mm 2 mps 627 mmHg 52%
    12:00 +28°C° 0 mm 3 mps 627 mmHg 50%
    13:00 +28°C° 0 mm 3 mps 626 mmHg 48%
    14:00 +29°C° 0 mm 4 mps 626 mmHg 46%
    15:00 +28°C° 0.3 mm 4 mps 626 mmHg 54%
    16:00 +26°C° 0.3 mm 4 mps 625 mmHg 63%
    17:00 +25°C° 0.3 mm 4 mps 625 mmHg 71%
    18:00 +24°C° 1 mm 3 mps 625 mmHg 78%
    19:00 +21°C° 1 mm 2 mps 626 mmHg 84%
    20:00 +20°C° 1 mm 2 mps 626 mmHg 90%
    21:00 +21°C° 0.5 mm 1 mps 626 mmHg 91%
    22:00 +21°C° 0.5 mm 1 mps 627 mmHg 91%
    23:00 +21°C° 0.5 mm 1 mps 627 mmHg 91%

    28 August, Wednesday

    Time Temperature Precipitation Wind Pressure Humidity
    00:00 +20°C° 0.8 mm 1 mps 627 mmHg 90%
    01:00 +20°C° 0.8 mm 1 mps 626 mmHg 89%
    02:00 +20°C° 0.8 mm 1 mps 626 mmHg 88%
    03:00 +18°C° 0.6 mm 0 mps 626 mmHg 88%
    04:00 +18°C° 0.6 mm 0 mps 626 mmHg 89%
    05:00 +17°C° 0.6 mm 0 mps 626 mmHg 89%
    06:00 +20°C° 0.1 mm 1 mps 627 mmHg 84%
    07:00 +22°C° 0.1 mm 1 mps 628 mmHg 79%
    08:00 +23°C° 0.1 mm 1 mps 628 mmHg 73%
    09:00 +24°C° 0.1 mm 1 mps 628 mmHg 69%
    10:00 +25°C° 0.1 mm 2 mps 628 mmHg 64%
    11:00 +27°C° 0.1 mm 2 mps 628 mmHg 60%
    12:00 +27°C° 0.1 mm 3 mps 628 mmHg 58%
    13:00 +27°C° 0.1 mm 4 mps 628 mmHg 57%
    14:00 +28°C° 0.1 mm 5 mps 627 mmHg 56%
    15:00 +27°C° 0.1 mm 5 mps 627 mmHg 61%
    16:00 +25°C° 0.1 mm 5 mps 627 mmHg 67%
    17:00 +23°C° 0.1 mm 5 mps 626 mmHg 72%
    18:00 +22°C° 0 mm 4 mps 627 mmHg 80%
    19:00 +20°C° 0 mm 3 mps 627 mmHg 87%
    20:00 +19°C° 0 mm 2 mps 627 mmHg 95%
    21:00 +20°C° 0 mm 1 mps 627 mmHg 95%
    22:00 +19°C° 0 mm 1 mps 627 mmHg 95%
    23:00 +19°C° 0 mm 1 mps 627 mmHg 95%

    29 August, Thursday

    Time Temperature Precipitation Wind Pressure Humidity
    00:00 +19°C° 0 mm 1 mps 627 mmHg 94%
    01:00 +19°C° 0 mm 1 mps 627 mmHg 93%
    02:00 +16°C° 0 mm 0 mps 626 mmHg 93%
    03:00 +16°C° 0 mm 0 mps 627 mmHg 91%
    04:00 +16°C° 0 mm 0 mps 627 mmHg 90%
    05:00 +16°C° 0 mm 0 mps 627 mmHg 89%
    06:00 +17°C° 0 mm 0 mps 627 mmHg 83%
    07:00 +18°C° 0 mm 0 mps 628 mmHg 76%
    08:00 +20°C° 0 mm 0 mps 629 mmHg 70%
    09:00 +23°C° 0 mm 1 mps 629 mmHg 60%
    10:00 +25°C° 0 mm 1 mps 629 mmHg 50%
    11:00 +27°C° 0 mm 2 mps 629 mmHg 39%
    12:00 +27°C° 0 mm 3 mps 629 mmHg 40%
    13:00 +28°C° 0 mm 4 mps 628 mmHg 40%
    14:00 +28°C° 0 mm 5 mps 628 mmHg 41%
    15:00 +27°C° 0 mm 5 mps 627 mmHg 51%
    16:00 +25°C° 0 mm 5 mps 627 mmHg 61%
    17:00 +23°C° 0 mm 5 mps 626 mmHg 71%
    18:00 +21°C° 0 mm 4 mps 627 mmHg 78%
    19:00 +20°C° 0 mm 3 mps 627 mmHg 85%
    20:00 +19°C° 0 mm 1 mps 627 mmHg 92%
    21:00 +19°C° 0 mm 1 mps 627 mmHg 92%
    22:00 +18°C° 0 mm 1 mps 627 mmHg 93%
    23:00 +18°C° 0 mm 1 mps 627 mmHg 93%

    30 August, Friday

    Time Temperature Precipitation Wind Pressure Humidity
    00:00 +16°C° 0 mm 0 mps 626 mmHg 93%
    01:00 +15°C° 0 mm 0 mps 626 mmHg 94%
    02:00 +15°C° 0 mm 0 mps 625 mmHg 95%
    03:00 +15°C° 0 mm 0 mps 625 mmHg 95%
    04:00 +14°C° 0 mm 0 mps 625 mmHg 95%
    05:00 +14°C° 0 mm 0 mps 625 mmHg 94%
    06:00 +16°C° 0 mm 0 mps 626 mmHg 86%
    07:00 +18°C° 0 mm 0 mps 627 mmHg 78%
    08:00 +20°C° 0 mm 0 mps 628 mmHg 70%
    09:00 +23°C° 0 mm 1 mps 628 mmHg 59%
    10:00 +25°C° 0 mm 1 mps 628 mmHg 48%
    11:00 +27°C° 0 mm 1 mps 628 mmHg 37%
    12:00 +28°C° 0 mm 2 mps 628 mmHg 36%
    13:00 +28°C° 0 mm 3 mps 627 mmHg 35%
    14:00 +29°C° 0 mm 4 mps 627 mmHg 34%
    15:00 +27°C° 0 mm 4 mps 627 mmHg 43%
    16:00 +26°C° 0 mm 5 mps 626 mmHg 52%
    17:00 +25°C° 0 mm 5 mps 626 mmHg 60%
    18:00 +22°C° 0.1 mm 4 mps 626 mmHg 71%
    19:00 +20°C° 0.1 mm 2 mps 626 mmHg 81%
    20:00 +19°C° 0.1 mm 1 mps 626 mmHg 92%
    21:00 +19°C° 0 mm 1 mps 626 mmHg 93%
    22:00 +18°C° 0 mm 1 mps 626 mmHg 94%
    23:00 +15°C° 0 mm 0 mps 626 mmHg 95%
    Show more